Flag for Germany Weather past 2 weeks in Mühlhausen/Thüringen, Thuringia, Germany

Now
37 °F

Sprinkles. Low clouds.


Feels Like: 29 °F
Forecast: 35 / 40 °F
Wind: 12 mph from West

Location: Erfurt-Bindersleben

Current Time: Apr 1, 2015 at 2:56:40 AM

Latest Report: Apr 1, 2015 at 2:00 AM


Visibility: 19 mi

Pressure: 29.72 "Hg

Humidity: 80%

Dew point: 31 °F

Location of Mühlhausen/ThüringenLocation

Historic Weather in Mühlhausen/Thüringen — Graph

°F

Mühlhausen/Thüringen temperature yesterday

Maximum temperature yesterday: 52 °F (at 10:00 AM)
Minimum temperature yesterday: 35 °F (at 5:00 AM)
Average temperature yesterday: 42 °F

Past Weeks' High & Low Weather Summary

 TemperatureHumidityPressure
High62 °F (Mar 25, 4:00 PM)100% (Mar 22, 1:00 AM)30.37 "Hg (Mar 22, 1:00 AM)
Low27 °F (Mar 23, 6:00 AM)32% (Mar 20, 3:00 PM)29.18 "Hg (Mar 31, 9:00 AM)
Average42 °F77%29.97 "Hg
* Reported Midnight between Mar 16 and Mar 17 — Apr 1 1:00 AM, Mühlhausen/Thüringen, Weather by CustomWeather, © 2015

Note: Actual official high and low records may vary slightly from our data, if they occured in-between our weather recording intervals... More about our weather records

Advertising

Mühlhausen/Thüringen weather history for previous 24 hours

 ConditionsComfort  
Time TempWeatherWind HumidityBarometerVisibility
1:00 AM
Wed, Apr 1
36 °FPassing clouds.14 mph81%29.68 "Hg37 mi
12:00 AM37 °FPassing clouds.12 mph82%29.68 "Hg37 mi
11:00 PM
Tue, Mar 31
39 °FPassing clouds.12 mph79%29.68 "Hg31 mi
10:00 PM36 °FPassing clouds.12 mph92%29.69 "Hg31 mi
9:00 PM42 °FPassing clouds.12 mph61%29.63 "Hg37 mi
8:00 PM41 °FSprinkles. Passing clouds.16 mph70%29.62 "Hg37 mi
7:00 PM42 °FPassing clouds.17 mph71%29.57 "Hg31 mi
6:00 PM42 °FScattered clouds.15 mph77%29.50 "Hg25 mi
5:00 PM46 °FSprinkles. Partly sunny.17 mph65%29.47 "Hg25 mi
4:00 PM46 °FScattered clouds.20 mph71%29.41 "Hg37 mi
3:00 PM46 °FSleet. Partly sunny.22 mph73%29.38 "Hg5 mi
2:00 PM51 °FPartly sunny.20 mph64%29.32 "Hg19 mi
1:00 PM48 °FSprinkles. Partly sunny.18 mph77%29.32 "Hg37 mi
12:00 PM47 °FPartly sunny.16 mph84%29.32 "Hg37 mi
11:00 AM44 °FSprinkles. Low clouds.12 mph83%29.29 "Hg12 mi
10:00 AM52 °FSprinkles. Overcast.23 mph75%29.18 "Hg19 mi
9:00 AM51 °FSprinkles. Overcast.20 mph82%29.18 "Hg19 mi
8:00 AM44 °FLight rain. Overcast.12 mph92%29.21 "Hg9 mi
7:00 AM42 °FLight rain. Overcast.10 mph91%29.23 "Hg9 mi
6:00 AM37 °FLight rain. Overcast.9 mph93%29.35 "Hg9 mi
5:00 AM35 °FLight rain. Overcast.8 mph97%29.44 "Hg9 mi
4:00 AM35 °FLight rain. Overcast.9 mph91%29.56 "Hg16 mi
3:00 AM39 °FLight rain. Overcast.10 mph68%29.65 "Hg25 mi
2:00 AM37 °FOvercast.5 mph74%29.73 "Hg25 mi
Weather by CustomWeather, © 2015

See weather overviewHow to use our weather pages